User: anonymous   Login
Location: Mat�lon
(46.2791°N, 7.1028°E)
Time: 11:13:37
(UTC+00:00)
Language:

Cosmos 1428 Rocket - Orbit

View from above orbital plane
View from above orbital plane
View from above satellite
View from above satellite

Ground track
Ground track

The orbit data is extracted from the following two-line orbital elements,

1 13758U 83001B   20337.56401869  .00000022  00000-0  65702-5 0  9999
2 13758  82.9123  81.4219 0027973  36.7640 323.5429 13.78791642905628
Epoch (UTC): 02 December 2020 13:32:11
Eccentricity: 0.0027973
inclination: 82.9123°
perigee height: 947 km
apogee height: 989 km
right ascension of ascending node: 81.4219°
argument of perigee: 36.7640°
revolutions per day: 13.78791642
mean anomaly at epoch: 323.5429°
orbit number at epoch: 90562

The dashed part of the orbit path shows where the satellite is in the earth's shadow,  

DLR